Simultaneous Nadir Overpasses (SNOs) Predictions

Prediction of SNOs between AQUA and NOAA-19 Satellite Orbit:

Table of predicted SNOs for the next 14.0 days since TLE Epoch: 5/18/2024
Index Date (AQUA) Time (AQUA) Lat,Lon (AQUA) SZA (AQUA ) Date (NOAA-19) Time (NOAA-19) Lat,Lon (NOAA-19) SZA (NOAA-19 ) Distance(km) Time Diff (sec)
1 05/19/2024 18:50:44 75.76,-105.59 55.70 05/19/2024 18:49:50 75.77,-105.47 55.70 3.35 54
2 05/19/2024 19:40:06 -75.81, 61.94 124.27 05/19/2024 19:40:54 -75.82, 61.96 124.25 1.44 48
3 05/21/2024 22:40:54 -75.74, 16.98 124.77 05/21/2024 22:39:56 -75.74, 16.99 124.76 0.58 58
4 05/21/2024 23:30:18 75.78,-175.50 55.28 05/21/2024 23:30:48 75.78,-175.61 55.27 3.05 30
5 05/24/2024 02:31:04 75.71, 139.56 54.80 05/24/2024 02:29:51 75.64, 139.23 54.74 11.91 73
6 05/24/2024 03:20:27 -75.80, -53.05 125.12 05/24/2024 03:20:53 -75.79, -53.05 125.13 1.57 26
7 05/26/2024 06:21:10 -75.67, -97.81 125.63 05/26/2024 06:19:57 -75.59, -98.41 125.70 18.87 73
8 05/26/2024 07:10:35 75.77, 69.54 54.48 05/26/2024 07:10:46 75.77, 69.47 54.47 2.03 11
9 05/28/2024 11:00:40 -75.78,-167.96 125.87 05/28/2024 11:00:50 -75.79,-167.93 125.87 1.16 10
10 05/30/2024 14:50:44 75.75, -45.35 53.78 05/30/2024 14:50:43 75.75, -45.46 53.78 3.17 1



Historial Predications of SNOs between AQUA and NOAA-19
